^^
Station Historical Data
Daily Summary for May 6, 2021 Units:  English    Metric   Both
Daily Weekly Monthly Yearly
  High: Low: Average:
Temperature: 46.7 °F 42.3 °F 44.6 °F
Dew Point: 36.7 °F 33.5 °F 35.3 °F
Humidity: 72% 66% 70%
Wind Speed: 4mph 1mph 2.3mph
Wind Gust: 6mph - -
Wind- - NW
Pressure: 30.11 in 30.09 in -
Precipitation: 0.00 in    
 
 
Tabular Data for May 6, 2021
Time Temperature Dew Point Pressure Wind Wind Speed Wind Gust Humidity Rainfall Rate (Hourly) solar
00:00 46.7 °F 36.3 °F 30.10 in WNW 3 mph 3 mph 67% 0.00 in 0 W/m2
00:05 46.7 °F 36.7 °F 30.10 in NW 3 mph 3 mph 68% 0.00 in 0 W/m2
00:10 46.6 °F 36.2 °F 30.10 in NW 3 mph 5 mph 67% 0.00 in 0 W/m2
00:15 46.7 °F 35.9 °F 30.10 in NNW 4 mph 5 mph 66% 0.00 in 0 W/m2
00:20 46.7 °F 36.3 °F 30.10 in NW 3 mph 3 mph 67% 0.00 in 0 W/m2
00:25 46.6 °F 36.6 °F 30.10 in NNW 2 mph 3 mph 68% 0.00 in 0 W/m2
00:30 46.5 °F 36.1 °F 30.10 in WNW 3 mph 3 mph 67% 0.00 in 0 W/m2
00:35 46.6 °F 36.2 °F 30.10 in NW 3 mph 3 mph 67% 0.00 in 0 W/m2
00:40 46.5 °F 36.1 °F 30.10 in North 3 mph 3 mph 67% 0.00 in 0 W/m2
00:45 46.5 °F 36.1 °F 30.10 in NNW 3 mph 3 mph 67% 0.00 in 0 W/m2
00:50 46.4 °F 36 °F 30.10 in NNW 3 mph 3 mph 67% 0.00 in 0 W/m2
00:55 46.4 °F 36.4 °F 30.10 in NW 2 mph 5 mph 68% 0.00 in 0 W/m2
01:00 46.3 °F 35.9 °F 30.11 in NW 3 mph 4 mph 67% 0.00 in 0 W/m2
01:05 46.3 °F 36.3 °F 30.10 in NW 3 mph 4 mph 68% 0.00 in 0 W/m2
01:10 46.2 °F 36.2 °F 30.11 in NW 2 mph 2 mph 68% 0.00 in 0 W/m2
01:15 46.2 °F 36.2 °F 30.11 in NW 2 mph 2 mph 68% 0.00 in 0 W/m2
01:20 46.1 °F 36.1 °F 30.11 in NNW 3 mph 5 mph 68% 0.00 in 0 W/m2
01:25 46.1 °F 36.1 °F 30.11 in NNW 3 mph 5 mph 68% 0.00 in 0 W/m2
01:30 46 °F 36.4 °F 30.11 in NW 3 mph 3 mph 69% 0.00 in 0 W/m2
01:35 46 °F 36 °F 30.10 in NW 2 mph 3 mph 68% 0.00 in 0 W/m2
01:40 45.8 °F 36.2 °F 30.11 in WNW 2 mph 3 mph 69% 0.00 in 0 W/m2
01:45 45.7 °F 35.7 °F 30.11 in NNW 2 mph 3 mph 68% 0.00 in 0 W/m2
01:50 45.7 °F 35.7 °F 30.11 in WNW 2 mph 4 mph 68% 0.00 in 0 W/m2
01:55 45.6 °F 35.6 °F 30.10 in NW 2 mph 4 mph 68% 0.00 in 0 W/m2
02:00 45.5 °F 35.5 °F 30.10 in NNW 3 mph 3 mph 68% 0.00 in 0 W/m2
02:05 45.5 °F 35.5 °F 30.10 in NNW 2 mph 3 mph 68% 0.00 in 0 W/m2
02:20 45.3 °F 35.7 °F 30.10 in NW 3 mph 3 mph 69% 0.00 in 0 W/m2
02:25 45.2 °F 35.3 °F 30.10 in WNW 2 mph 3 mph 68% 0.00 in 0 W/m2
02:30 45.2 °F 35.3 °F 30.10 in West 3 mph 4 mph 68% 0.00 in 0 W/m2
02:35 45.1 °F 35.5 °F 30.10 in NNW 3 mph 4 mph 69% 0.00 in 0 W/m2
02:40 45 °F 35.1 °F 30.10 in NNW 2 mph 6 mph 68% 0.00 in 0 W/m2
02:45 44.9 °F 35.3 °F 30.10 in WNW 3 mph 6 mph 69% 0.00 in 0 W/m2
02:50 44.9 °F 35.7 °F 30.10 in NW 3 mph 3 mph 70% 0.00 in 0 W/m2
02:55 44.9 °F 35.7 °F 30.10 in NW 3 mph 3 mph 70% 0.00 in 0 W/m2
03:00 44.9 °F 35.3 °F 30.09 in NW 3 mph 3 mph 69% 0.00 in 0 W/m2
03:05 44.8 °F 35.6 °F 30.10 in NW 3 mph 3 mph 70% 0.00 in 0 W/m2
03:10 44.7 °F 35.5 °F 30.10 in WNW 3 mph 3 mph 70% 0.00 in 0 W/m2
03:15 44.7 °F 35.5 °F 30.10 in WNW 2 mph 3 mph 70% 0.00 in 0 W/m2
03:20 44.7 °F 35.9 °F 30.10 in NNW 2 mph 2 mph 71% 0.00 in 0 W/m2
03:25 44.6 °F 35.8 °F 30.10 in NW 2 mph 2 mph 71% 0.00 in 0 W/m2
03:30 44.5 °F 35.7 °F 30.10 in NW 2 mph 2 mph 71% 0.00 in 0 W/m2
03:35 44.5 °F 35.7 °F 30.10 in NW 3 mph 3 mph 71% 0.00 in 0 W/m2
03:40 44.4 °F 35.6 °F 30.10 in NNW 3 mph 3 mph 71% 0.00 in 0 W/m2
03:45 44.4 °F 35.6 °F 30.10 in NNW 2 mph 3 mph 71% 0.00 in 0 W/m2
03:50 44.3 °F 35.5 °F 30.10 in NNW 2 mph 5 mph 71% 0.00 in 0 W/m2
03:55 44.2 °F 35.4 °F 30.10 in WNW 2 mph 5 mph 71% 0.00 in 0 W/m2
04:00 44.2 °F 35.4 °F 30.10 in NW 3 mph 5 mph 71% 0.00 in 0 W/m2
04:05 44.2 °F 35.4 °F 30.10 in NW 3 mph 5 mph 71% 0.00 in 0 W/m2
04:10 44.1 °F 35.6 °F 30.10 in NW 3 mph 3 mph 72% 0.00 in 0 W/m2
04:15 44.1 °F 35.6 °F 30.10 in WNW 2 mph 3 mph 72% 0.00 in 0 W/m2
04:20 44.1 °F 35.6 °F 30.10 in NW 2 mph 2 mph 72% 0.00 in 0 W/m2
04:25 44 °F 35.6 °F 30.10 in NW 2 mph 2 mph 72% 0.00 in 0 W/m2
04:30 43.9 °F 35.5 °F 30.10 in NNW 2 mph 2 mph 72% 0.00 in 0 W/m2
04:35 43.9 °F 35.5 °F 30.10 in North 2 mph 3 mph 72% 0.00 in 0 W/m2
04:40 43.9 °F 35.5 °F 30.10 in NW 2 mph 3 mph 72% 0.00 in 0 W/m2
04:45 43.8 °F 35.4 °F 30.10 in NW 2 mph 3 mph 72% 0.00 in 0 W/m2
04:50 43.7 °F 35.3 °F 30.10 in WNW 2 mph 2 mph 72% 0.00 in 0 W/m2
04:55 43.7 °F 35.3 °F 30.10 in NW 2 mph 2 mph 72% 0.00 in 0 W/m2
05:00 43.6 °F 34.8 °F 30.10 in NW 3 mph 3 mph 71% 0.00 in 0 W/m2
05:05 43.6 °F 34.8 °F 30.10 in NNW 2 mph 3 mph 71% 0.00 in 0 W/m2
05:10 43.5 °F 34.7 °F 30.10 in NW 2 mph 2 mph 71% 0.00 in 0 W/m2
05:15 43.5 °F 34.7 °F 30.10 in NW 2 mph 3 mph 71% 0.00 in 0 W/m2
05:20 43.5 °F 34.7 °F 30.10 in NW 2 mph 4 mph 71% 0.00 in 0 W/m2
05:25 43.4 °F 34.6 °F 30.10 in NW 2 mph 4 mph 71% 0.00 in 0 W/m2
05:30 43.4 °F 34.6 °F 30.10 in NNW 2 mph 2 mph 71% 0.00 in 0 W/m2
05:35 43.3 °F 34.5 °F 30.10 in NW 2 mph 3 mph 71% 0.00 in 0 W/m2
05:40 43.2 °F 34.4 °F 30.10 in NW 2 mph 2 mph 71% 0.00 in 0 W/m2
05:45 43.2 °F 34.4 °F 30.10 in NW 2 mph 2 mph 71% 0.00 in 0 W/m2
05:50 43.2 °F 34.4 °F 30.09 in WNW 2 mph 2 mph 71% 0.00 in 0 W/m2
05:55 43.1 °F 34 °F 30.10 in NNW 2 mph 3 mph 70% 0.00 in 0 W/m2
06:00 43.1 °F 34 °F 30.10 in NW 2 mph 2 mph 70% 0.00 in 0 W/m2
06:05 43.1 °F 34 °F 30.10 in WNW 2 mph 4 mph 70% 0.00 in 0 W/m2
06:10 42.9 °F 33.8 °F 30.10 in NW 2 mph 2 mph 70% 0.00 in 0 W/m2
06:15 43 °F 33.9 °F 30.10 in NW 2 mph 2 mph 70% 0.00 in 5 W/m2
06:20 42.9 °F 33.8 °F 30.10 in NW 1 mph 1 mph 70% 0.00 in 7 W/m2
06:25 42.8 °F 33.7 °F 30.10 in NW 1 mph 1 mph 70% 0.00 in 9 W/m2
06:30 42.8 °F 33.7 °F 30.10 in NW 1 mph 2 mph 70% 0.00 in 11 W/m2
06:35 42.7 °F 33.9 °F 30.10 in NW 1 mph 2 mph 71% 0.00 in 12 W/m2
06:40 42.6 °F 33.5 °F 30.10 in NW 1 mph 1 mph 70% 0.00 in 14 W/m2
06:45 42.6 °F 33.9 °F 30.10 in NW 1 mph 1 mph 71% 0.00 in 16 W/m2
06:50 42.5 °F 33.8 °F 30.10 in NW 1 mph 1 mph 71% 0.00 in 19 W/m2
07:00 42.3 °F 33.6 °F 30.10 in NNW 1 mph 2 mph 71% 0.00 in 25 W/m2
Sand Point, Michigan, USA
Compliments of Weather Underground - 2 mb